When you browse on this site, cookies collect data to enhance your experience and personalize the content and advertising you see.
Visit our Privacy Policy to learn more. By continuing to use the site, you agree to this use of cookies and data.
  • In Latvia
  • List of Countries
  • For 7 days
  • Water Temperature
  • Weather Map
  • Weather Widgets
  • user-avatar
    Login

    Hourly Weather Linz

    Today, 23 September, Monday

    Time Temperature Precipitation Wind Pressure Humidity
    00:00 +13°C° 0 mm 1 mps 730 mmHg 78%
    01:00 +13°C° 0 mm 1 mps 730 mmHg 82%
    02:00 +12°C° 0 mm 0 mps 730 mmHg 82%
    03:00 +11°C° 0 mm 0 mps 730 mmHg 83%
    04:00 +11°C° 0 mm 0 mps 729 mmHg 84%
    05:00 +12°C° 0 mm 0 mps 730 mmHg 83%
    06:00 +13°C° 0 mm 1 mps 730 mmHg 82%
    07:00 +13°C° 0 mm 0 mps 731 mmHg 80%
    08:00 +15°C° 0 mm 1 mps 731 mmHg 81%
    09:00 +16°C° 0 mm 2 mps 731 mmHg 82%
    10:00 +17°C° 0 mm 2 mps 731 mmHg 83%
    11:00 +16°C° 0.3 mm 3 mps 731 mmHg 85%
    12:00 +15°C° 0.3 mm 4 mps 731 mmHg 88%
    13:00 +14°C° 0.3 mm 5 mps 732 mmHg 91%
    14:00 +14°C° 1 mm 5 mps 732 mmHg 92%
    15:00 +13°C° 1 mm 4 mps 732 mmHg 93%
    16:00 +13°C° 1 mm 4 mps 732 mmHg 94%
    17:00 +13°C° 0.3 mm 4 mps 733 mmHg 94%
    18:00 +13°C° 0.3 mm 4 mps 733 mmHg 94%
    19:00 +13°C° 0.3 mm 3 mps 733 mmHg 93%
    20:00 +12°C° 0.3 mm 3 mps 733 mmHg 94%
    21:00 +12°C° 0.3 mm 3 mps 734 mmHg 94%
    22:00 +12°C° 0.3 mm 3 mps 734 mmHg 94%
    23:00 +12°C° 0.3 mm 3 mps 734 mmHg 94%

    Tomorrow, 24 September, Tuesday

    Time Temperature Precipitation Wind Pressure Humidity
    00:00 +12°C° 0.3 mm 3 mps 734 mmHg 95%
    01:00 +12°C° 0.3 mm 3 mps 734 mmHg 95%
    02:00 +13°C° 0.2 mm 2 mps 734 mmHg 95%
    03:00 +13°C° 0.2 mm 2 mps 734 mmHg 95%
    04:00 +13°C° 0.2 mm 2 mps 733 mmHg 94%
    05:00 +13°C° 0.1 mm 2 mps 733 mmHg 94%
    06:00 +13°C° 0.1 mm 2 mps 733 mmHg 94%
    07:00 +13°C° 0.1 mm 1 mps 733 mmHg 94%
    08:00 +14°C° 0 mm 1 mps 733 mmHg 91%
    09:00 +15°C° 0 mm 1 mps 733 mmHg 87%
    10:00 +16°C° 0 mm 1 mps 733 mmHg 84%
    11:00 +18°C° 0 mm 1 mps 732 mmHg 79%
    12:00 +19°C° 0 mm 1 mps 732 mmHg 73%
    13:00 +21°C° 0 mm 1 mps 731 mmHg 68%
    14:00 +19°C° 0 mm 2 mps 731 mmHg 69%
    15:00 +19°C° 0 mm 2 mps 730 mmHg 69%
    16:00 +19°C° 0 mm 2 mps 730 mmHg 70%
    17:00 +18°C° 0 mm 2 mps 730 mmHg 76%
    18:00 +18°C° 0 mm 1 mps 730 mmHg 81%
    19:00 +14°C° 0 mm 0 mps 730 mmHg 86%
    20:00 +14°C° 0 mm 0 mps 730 mmHg 88%
    21:00 +15°C° 0 mm 1 mps 730 mmHg 89%
    22:00 +14°C° 0 mm 1 mps 730 mmHg 91%
    23:00 +14°C° 0.1 mm 1 mps 730 mmHg 91%

    Day after tomorrow, 25 September, Wednesday

    Time Temperature Precipitation Wind Pressure Humidity
    00:00 +15°C° 0.1 mm 1 mps 730 mmHg 90%
    01:00 +14°C° 0.1 mm 0 mps 730 mmHg 90%
    02:00 +14°C° 0 mm 0 mps 730 mmHg 91%
    03:00 +13°C° 0 mm 0 mps 730 mmHg 91%
    04:00 +13°C° 0 mm 0 mps 730 mmHg 92%
    05:00 +13°C° 0 mm 0 mps 729 mmHg 91%
    06:00 +14°C° 0 mm 1 mps 729 mmHg 90%
    07:00 +14°C° 0 mm 1 mps 729 mmHg 89%
    08:00 +15°C° 0.3 mm 1 mps 729 mmHg 86%
    09:00 +16°C° 0.3 mm 2 mps 730 mmHg 83%
    10:00 +17°C° 0.3 mm 2 mps 730 mmHg 79%
    11:00 +17°C° 0.4 mm 2 mps 730 mmHg 79%
    12:00 +17°C° 0.4 mm 3 mps 730 mmHg 79%
    13:00 +17°C° 0.4 mm 3 mps 730 mmHg 79%
    14:00 +16°C° 0.3 mm 3 mps 730 mmHg 82%
    15:00 +15°C° 0.3 mm 2 mps 730 mmHg 84%
    16:00 +15°C° 0.3 mm 2 mps 730 mmHg 87%
    17:00 +14°C° 0.1 mm 2 mps 730 mmHg 88%
    18:00 +14°C° 0.1 mm 1 mps 731 mmHg 89%
    19:00 +13°C° 0.1 mm 1 mps 731 mmHg 90%
    20:00 +13°C° 0 mm 1 mps 731 mmHg 89%
    21:00 +13°C° 0 mm 1 mps 731 mmHg 89%
    22:00 +13°C° 0 mm 1 mps 732 mmHg 88%
    23:00 +13°C° 0.1 mm 1 mps 731 mmHg 89%

    26 September, Thursday

    Time Temperature Precipitation Wind Pressure Humidity
    00:00 +13°C° 0.1 mm 1 mps 731 mmHg 89%
    01:00 +13°C° 0.1 mm 1 mps 731 mmHg 90%
    02:00 +12°C° 0 mm 1 mps 731 mmHg 90%
    03:00 +12°C° 0 mm 1 mps 732 mmHg 91%
    04:00 +12°C° 0 mm 1 mps 732 mmHg 91%
    05:00 +12°C° 0 mm 1 mps 732 mmHg 91%
    06:00 +12°C° 0 mm 1 mps 732 mmHg 90%
    07:00 +12°C° 0 mm 1 mps 732 mmHg 89%
    08:00 +13°C° 0 mm 1 mps 733 mmHg 86%
    09:00 +15°C° 0 mm 2 mps 733 mmHg 83%
    10:00 +16°C° 0 mm 2 mps 733 mmHg 80%
    11:00 +16°C° 0.1 mm 3 mps 733 mmHg 81%
    12:00 +16°C° 0.1 mm 3 mps 733 mmHg 81%
    13:00 +16°C° 0.1 mm 3 mps 733 mmHg 82%
    14:00 +16°C° 0.1 mm 3 mps 733 mmHg 81%
    15:00 +16°C° 0.1 mm 3 mps 733 mmHg 81%
    16:00 +16°C° 0.1 mm 3 mps 733 mmHg 81%
    17:00 +14°C° 0 mm 3 mps 734 mmHg 83%
    18:00 +14°C° 0 mm 2 mps 734 mmHg 86%
    19:00 +14°C° 0 mm 1 mps 734 mmHg 89%
    20:00 +14°C° 0.4 mm 1 mps 734 mmHg 91%
    21:00 +14°C° 0.4 mm 1 mps 735 mmHg 93%
    22:00 +14°C° 0.4 mm 1 mps 735 mmHg 94%
    23:00 +14°C° 0.6 mm 1 mps 735 mmHg 95%

    27 September, Friday

    Time Temperature Precipitation Wind Pressure Humidity
    00:00 +14°C° 0.6 mm 1 mps 735 mmHg 95%
    01:00 +14°C° 0.6 mm 1 mps 735 mmHg 96%
    02:00 +14°C° 0.4 mm 1 mps 735 mmHg 95%
    03:00 +14°C° 0.4 mm 1 mps 735 mmHg 95%
    04:00 +13°C° 0.4 mm 0 mps 735 mmHg 94%
    05:00 +13°C° 0 mm 0 mps 735 mmHg 94%
    06:00 +13°C° 0 mm 0 mps 735 mmHg 94%
    07:00 +13°C° 0 mm 0 mps 735 mmHg 94%
    08:00 +13°C° 0 mm 0 mps 735 mmHg 93%
    09:00 +14°C° 0 mm 0 mps 735 mmHg 92%
    10:00 +15°C° 0 mm 0 mps 735 mmHg 90%
    11:00 +15°C° 0 mm 0 mps 734 mmHg 88%
    12:00 +16°C° 0 mm 0 mps 734 mmHg 85%
    13:00 +17°C° 0 mm 0 mps 734 mmHg 83%
    14:00 +17°C° 0 mm 0 mps 734 mmHg 81%
    15:00 +20°C° 0 mm 1 mps 733 mmHg 79%
    16:00 +20°C° 0 mm 1 mps 733 mmHg 77%
    17:00 +19°C° 0 mm 1 mps 733 mmHg 82%
    18:00 +18°C° 0 mm 1 mps 734 mmHg 87%
    19:00 +15°C° 0 mm 1 mps 734 mmHg 92%
    20:00 +15°C° 0.1 mm 1 mps 734 mmHg 91%
    21:00 +15°C° 0.1 mm 1 mps 734 mmHg 90%
    22:00 +14°C° 0.1 mm 0 mps 734 mmHg 89%
    23:00 +15°C° 0.3 mm 1 mps 734 mmHg 91%

    28 September, Saturday

    Time Temperature Precipitation Wind Pressure Humidity
    00:00 +15°C° 0.3 mm 1 mps 734 mmHg 93%
    01:00 +15°C° 0.3 mm 1 mps 734 mmHg 94%
    02:00 +15°C° 0.5 mm 1 mps 734 mmHg 95%
    03:00 +15°C° 0.5 mm 1 mps 734 mmHg 95%
    04:00 +15°C° 0.5 mm 1 mps 734 mmHg 95%
    05:00 +15°C° 0.2 mm 1 mps 734 mmHg 95%
    06:00 +15°C° 0.2 mm 1 mps 734 mmHg 95%
    07:00 +14°C° 0.2 mm 0 mps 734 mmHg 95%
    08:00 +15°C° 0.8 mm 1 mps 734 mmHg 96%
    09:00 +15°C° 0.8 mm 1 mps 735 mmHg 96%
    10:00 +15°C° 0.8 mm 1 mps 735 mmHg 96%
    11:00 +15°C° 0.6 mm 1 mps 735 mmHg 96%
    12:00 +15°C° 0.6 mm 2 mps 735 mmHg 95%
    13:00 +15°C° 0.6 mm 2 mps 735 mmHg 95%
    14:00 +15°C° 0.1 mm 2 mps 735 mmHg 92%
    15:00 +16°C° 0.1 mm 2 mps 735 mmHg 89%
    16:00 +16°C° 0.1 mm 1 mps 735 mmHg 86%
    17:00 +15°C° 0 mm 1 mps 735 mmHg 88%
    18:00 +14°C° 0 mm 1 mps 735 mmHg 90%
    19:00 +13°C° 0 mm 1 mps 735 mmHg 91%
    20:00 +13°C° 0 mm 1 mps 735 mmHg 91%
    21:00 +13°C° 0 mm 1 mps 735 mmHg 91%
    22:00 +12°C° 0 mm 1 mps 736 mmHg 91%
    23:00 +12°C° 0 mm 1 mps 735 mmHg 91%
    Show more